| time (UTC) | temp F | wind direction | speed MPH | gust MPH | rain 1hr in | rain 24hr in | rain mn in | humidity % | barometer mb |
| 20260904062205 | 74 | 205 | 7.0 | 12.0 | 0.04 | 0.31 | 0.31 | 93 | 1011.7 |
| 20260904060706 | 74 | 186 | 6.0 | 10.0 | 0.06 | 0.31 | 0.31 | 92 | 1011.4 |
| 20260904060206 | 74 | 189 | 3.0 | 7.0 | 0.07 | 0.31 | 0.31 | 92 | 1011.0 |
| 20260904055705 | 74 | 190 | 5.0 | 7.0 | 0.09 | 0.31 | 0.31 | 92 | 1010.9 |
| 20260904055205 | 74 | 170 | 5.0 | 6.0 | 0.11 | 0.30 | 0.30 | 92 | 1011.3 |
| 20260904054705 | 74 | 193 | 2.0 | 5.0 | 0.13 | 0.29 | 0.29 | 92 | 1011.5 |
| 20260904054205 | 74 | 186 | 5.0 | 9.0 | 0.19 | 0.28 | 0.28 | 92 | 1011.5 |
| 20260904053706 | 74 | 130 | 5.0 | 9.0 | 0.28 | 0.28 | 0.28 | 92 | 1011.3 |
| 20260904053205 | 74 | 121 | 5.0 | 8.0 | 0.28 | 0.28 | 0.28 | 92 | 1011.7 |
| 20260904052705 | 74 | 111 | 5.0 | 7.0 | 0.28 | 0.28 | 0.28 | 93 | 1012.0 |
| 20260904052205 | 74 | 126 | 5.0 | 6.0 | 0.27 | 0.27 | 0.27 | 92 | 1012.4 |
| 20260904051706 | 74 | 175 | 1.0 | 3.0 | 0.26 | 0.26 | 0.26 | 90 | 1012.9 |
| 20260904051206 | 74 | 266 | 0.0 | 1.0 | 0.26 | 0.26 | 0.26 | 90 | 1013.5 |
| 20260904050705 | 74 | 298 | 3.0 | 6.0 | 0.25 | 0.25 | 0.25 | 90 | 1013.8 |
| 20260904050205 | 74 | 288 | 5.0 | 12.0 | 0.24 | 0.24 | 0.24 | 90 | 1013.9 |
| 20260904045705 | 74 | 241 | 3.0 | 12.0 | 0.22 | 0.22 | 0.22 | 89 | 1014.1 |
| 20260904045205 | 75 | 227 | 9.0 | 20.0 | 0.19 | 0.19 | 0.19 | 88 | 1014.2 |
| 20260904044705 | 76 | 230 | 12.0 | 26.0 | 0.16 | 0.16 | 0.16 | 87 | 1014.4 |
| 20260904044206 | 77 | 207 | 13.0 | 23.0 | 0.09 | 0.09 | 0.09 | 85 | 1014.3 |
| 20260904043706 | 79 | 229 | 16.0 | 35.0 | 0.00 | 0.00 | 0.00 | 83 | 1014.0 |
| 20260904043206 | 80 | 254 | 6.0 | 20.0 | 0.00 | 0.00 | 0.00 | 92 | 1013.6 |
| 20260904042706 | 80 | 259 | 8.0 | 15.0 | 0.00 | 0.00 | 0.00 | 92 | 1012.4 |
| 20260904042205 | 80 | 234 | 10.0 | 15.0 | 0.00 | 0.00 | 0.00 | 92 | 1011.8 |
| 20260904041705 | 80 | 229 | 7.0 | 10.0 | 0.00 | 0.00 | 0.00 | 92 | 1011.7 |
| 20260904041205 | 80 | 237 | 6.0 | 10.0 | 0.00 | 0.00 | 0.00 | 92 | 1011.3 |
| 20260904040705 | 80 | 226 | 6.0 | 8.0 | 0.00 | 0.00 | 0.00 | 92 | 1011.2 |
| 20260904040205 | 80 | 199 | 2.0 | 3.0 | 0.00 | 0.00 | 0.00 | 93 | 1010.6 |
| 20260904035705 | 80 | 152 | 1.0 | 3.0 | 0.00 | 0.00 | 0.00 | 92 | 1010.4 |
| 20260904035205 | 80 | 216 | 1.0 | 3.0 | 0.00 | 0.00 | 0.00 | 91 | 1010.5 |
| 20260904034706 | 80 | 216 | 2.0 | 3.0 | 0.00 | 0.00 | 0.00 | 91 | 1010.9 |
| 20260904033705 | 80 | 216 | 1.0 | 2.0 | 0.00 | 0.00 | 0.00 | 91 | 1011.3 |
| 20260904033207 | 80 | 216 | 3.0 | 3.0 | 0.00 | 0.00 | 0.00 | 91 | 1011.4 |
| 20260904032705 | 80 | 216 | 2.0 | 3.0 | 0.00 | 0.00 | 0.00 | 91 | 1011.5 |
| 20260904032205 | 80 | 206 | 2.0 | 5.0 | 0.00 | 0.00 | 0.00 | 91 | 1011.5 |
| 20260904031705 | 80 | 218 | 3.0 | 5.0 | 0.00 | 0.00 | 0.00 | 91 | 1011.6 |
| 20260904031205 | 80 | 205 | 2.0 | 3.0 | 0.00 | 0.00 | 0.00 | 91 | 1011.6 |
| 20260904030706 | 80 | 169 | 1.0 | 3.0 | 0.00 | 0.00 | 0.00 | 91 | 1011.6 |
| 20260904030205 | 80 | 182 | 2.0 | 5.0 | 0.00 | 0.00 | 0.00 | 91 | 1011.7 |
| 20260904025705 | 80 | 206 | 3.0 | 6.0 | 0.00 | 0.00 | 0.00 | 91 | 1011.7 |
| 20260904024705 | 80 | 209 | 4.0 | 6.0 | 0.00 | 0.00 | 0.00 | 91 | 1011.8 |
| 20260904024205 | 81 | 216 | 3.0 | 6.0 | 0.00 | 0.00 | 0.00 | 91 | 1011.9 |
| 20260904023705 | 81 | 212 | 6.0 | 8.0 | 0.00 | 0.00 | 0.00 | 91 | 1011.9 |
| 20260904023205 | 81 | 213 | 5.0 | 7.0 | 0.00 | 0.00 | 0.00 | 91 | 1011.9 |
| 20260904022205 | 81 | 210 | 6.0 | 7.0 | 0.00 | 0.00 | 0.00 | 91 | 1012.0 |
| 20260904021205 | 81 | 219 | 6.0 | 8.0 | 0.00 | 0.00 | 0.00 | 90 | 1012.1 |
| 20260904020705 | 81 | 209 | 5.0 | 7.0 | 0.00 | 0.00 | 0.00 | 90 | 1012.0 |
| 20260904020205 | 81 | 207 | 4.0 | 5.0 | 0.00 | 0.00 | 0.00 | 91 | 1011.9 |
| 20260904015705 | 81 | 192 | 3.0 | 7.0 | 0.00 | 0.00 | 0.00 | 91 | 1011.7 |
| 20260904015205 | 81 | 189 | 5.0 | 7.0 | 0.00 | 0.00 | 0.00 | 91 | 1011.6 |
| 20260904014205 | 81 | 196 | 3.0 | 5.0 | 0.00 | 0.00 | 0.00 | 91 | 1011.7 |
| 20260904013705 | 81 | 176 | 2.0 | 3.0 | 0.00 | 0.00 | 0.00 | 91 | 1011.9 |
| 20260904013205 | 80 | 183 | 2.0 | 3.0 | 0.00 | 0.00 | 0.00 | 90 | 1011.9 |
| 20260904012705 | 80 | 157 | 2.0 | 3.0 | 0.00 | 0.00 | 0.00 | 89 | 1012.0 |
| 20260904012205 | 80 | 175 | 3.0 | 5.0 | 0.00 | 0.00 | 0.00 | 89 | 1012.1 |
| 20260904011705 | 80 | 196 | 5.0 | 7.0 | 0.00 | 0.00 | 0.00 | 89 | 1012.2 |
| 20260904011205 | 80 | 206 | 5.0 | 8.0 | 0.00 | 0.00 | 0.00 | 89 | 1012.3 |
| 20260904010705 | 81 | 203 | 6.0 | 9.0 | 0.00 | 0.00 | 0.00 | 89 | 1012.4 |
| 20260904010205 | 81 | 204 | 5.0 | 7.0 | 0.00 | 0.00 | 0.00 | 89 | 1012.4 |
| 20260904005706 | 81 | 205 | 5.0 | 6.0 | 0.00 | 0.00 | 0.00 | 88 | 1012.5 |
| 20260904005205 | 81 | 200 | 4.0 | 7.0 | 0.00 | 0.00 | 0.00 | 88 | 1012.6 |
| 20260904004705 | 81 | 194 | 5.0 | 7.0 | 0.00 | 0.00 | 0.00 | 88 | 1012.6 |
| 20260904003205 | 81 | 224 | 7.0 | 8.0 | 0.00 | 0.00 | 0.00 | 88 | 1012.6 |
| 20260904002705 | 81 | 224 | 7.0 | 8.0 | 0.00 | 0.00 | 0.00 | 88 | 1012.5 |
| 20260904002205 | 81 | 231 | 7.0 | 9.0 | 0.00 | 0.00 | 0.00 | 87 | 1012.5 |
| 20260904001705 | 81 | 225 | 7.0 | 9.0 | 0.00 | 0.00 | 0.00 | 87 | 1012.4 |
| 20260904001205 | 81 | 226 | 7.0 | 9.0 | 0.00 | 0.00 | 0.00 | 87 | 1012.2 |
| 20260904000705 | 82 | 231 | 7.0 | 9.0 | 0.00 | 0.00 | 0.00 | 87 | 1012.2 |
| 20260904000206 | 82 | 224 | 8.0 | 9.0 | 0.00 | 0.00 | 0.00 | 87 | 1012.0 |
| 20260903235706 | 82 | 220 | 7.0 | 9.0 | 0.00 | 0.00 | 0.00 | 86 | 1011.9 |
| 20260903235205 | 82 | 219 | 7.0 | 9.0 | 0.00 | 0.00 | 0.00 | 86 | 1011.9 |
| 20260903234205 | 82 | 207 | 6.0 | 8.0 | 0.00 | 0.00 | 0.00 | 85 | 1011.8 |
| 20260903233705 | 83 | 205 | 7.0 | 9.0 | 0.00 | 0.00 | 0.00 | 84 | 1011.7 |
| 20260903233205 | 83 | 192 | 5.0 | 8.0 | 0.00 | 0.00 | 0.00 | 84 | 1011.8 |
| 20260903232705 | 83 | 213 | 7.0 | 9.0 | 0.00 | 0.00 | 0.00 | 84 | 1011.8 |
| 20260903232205 | 83 | 209 | 6.0 | 7.0 | 0.00 | 0.00 | 0.00 | 83 | 1011.8 |
| 20260903231705 | 83 | 217 | 6.0 | 8.0 | 0.00 | 0.00 | 0.00 | 83 | 1011.9 |
| 20260903230205 | 84 | 203 | 6.0 | 8.0 | 0.00 | 0.00 | 0.00 | 81 | 1011.8 |
| 20260903225705 | 84 | 210 | 7.0 | 9.0 | 0.00 | 0.00 | 0.00 | 81 | 1011.8 |
| 20260903225206 | 85 | 212 | 8.0 | 9.0 | 0.00 | 0.00 | 0.00 | 81 | 1011.8 |
| 20260903224704 | 85 | 218 | 7.0 | 12.0 | 0.00 | 0.00 | 0.00 | 81 | 1011.8 |
| 20260903224205 | 85 | 208 | 7.0 | 9.0 | 0.00 | 0.00 | 0.00 | 80 | 1011.8 |
| 20260903223705 | 85 | 206 | 7.0 | 8.0 | 0.00 | 0.00 | 0.00 | 80 | 1011.7 |
| 20260903223205 | 85 | 217 | 6.0 | 10.0 | 0.00 | 0.00 | 0.00 | 80 | 1011.7 |
| 20260903222705 | 85 | 207 | 6.0 | 9.0 | 0.00 | 0.00 | 0.00 | 80 | 1011.6 |
| 20260903221705 | 86 | 220 | 7.0 | 9.0 | 0.00 | 0.00 | 0.00 | 79 | 1011.7 |
| 20260903221205 | 86 | 209 | 6.0 | 9.0 | 0.00 | 0.00 | 0.00 | 79 | 1011.6 |
| 20260903220206 | 86 | 212 | 7.0 | 10.0 | 0.00 | 0.00 | 0.00 | 79 | 1011.7 |
| 20260903215705 | 86 | 202 | 7.0 | 9.0 | 0.00 | 0.00 | 0.00 | 78 | 1011.6 |
| 20260903214705 | 87 | 203 | 8.0 | 12.0 | 0.00 | 0.00 | 0.00 | 76 | 1011.7 |
| 20260903214205 | 87 | 203 | 8.0 | 12.0 | 0.00 | 0.00 | 0.00 | 76 | 1011.7 |
| 20260903213705 | 87 | 211 | 6.0 | 10.0 | 0.00 | 0.00 | 0.00 | 74 | 1011.7 |
| 20260903213205 | 88 | 204 | 9.0 | 12.0 | 0.00 | 0.00 | 0.00 | 75 | 1011.8 |
| 20260903212705 | 88 | 210 | 9.0 | 13.0 | 0.00 | 0.00 | 0.00 | 75 | 1011.9 |
| 20260903212205 | 88 | 193 | 7.0 | 10.0 | 0.00 | 0.00 | 0.00 | 74 | 1011.9 |
| 20260903211706 | 89 | 208 | 6.0 | 8.0 | 0.00 | 0.00 | 0.00 | 73 | 1012.0 |
| 20260903211205 | 89 | 196 | 7.0 | 10.0 | 0.00 | 0.00 | 0.00 | 73 | 1012.0 |
| 20260903210705 | 89 | 189 | 6.0 | 9.0 | 0.00 | 0.00 | 0.00 | 73 | 1012.0 |
| 20260903210205 | 90 | 208 | 6.0 | 8.0 | 0.00 | 0.00 | 0.00 | 73 | 1012.1 |
| 20260903205705 | 90 | 194 | 5.0 | 10.0 | 0.00 | 0.00 | 0.00 | 73 | 1012.0 |
| 20260903204705 | 90 | 183 | 9.0 | 12.0 | 0.00 | 0.00 | 0.00 | 73 | 1012.0 |
| 20260903204205 | 90 | 198 | 8.0 | 13.0 | 0.00 | 0.00 | 0.00 | 74 | 1012.0 |
| 20260903203705 | 90 | 175 | 6.0 | 10.0 | 0.00 | 0.00 | 0.00 | 73 | 1012.0 |
| 20260903203206 | 90 | 191 | 6.0 | 9.0 | 0.00 | 0.00 | 0.00 | 73 | 1012.1 |
| 20260903202705 | 90 | 197 | 7.0 | 9.0 | 0.00 | 0.00 | 0.00 | 73 | 1012.2 |
| 20260903202205 | 90 | 223 | 7.0 | 9.0 | 0.00 | 0.00 | 0.00 | 72 | 1012.3 |
| 20260903201705 | 90 | 216 | 9.0 | 12.0 | 0.00 | 0.00 | 0.00 | 72 | 1012.3 |
| 20260903201205 | 90 | 216 | 8.0 | 12.0 | 0.00 | 0.00 | 0.00 | 72 | 1012.5 |
| 20260903200705 | 89 | 228 | 7.0 | 9.0 | 0.00 | 0.00 | 0.00 | 75 | 1012.6 |
| 20260903200205 | 89 | 217 | 6.0 | 8.0 | 0.00 | 0.00 | 0.00 | 76 | 1012.8 |
| 20260903195704 | 89 | 224 | 6.0 | 8.0 | 0.00 | 0.00 | 0.00 | 73 | 1012.9 |
| 20260903195205 | 89 | 224 | 6.0 | 8.0 | 0.00 | 0.00 | 0.00 | 73 | 1012.9 |
| 20260903194705 | 90 | 235 | 7.0 | 12.0 | 0.00 | 0.00 | 0.00 | 72 | 1012.9 |
| 20260903193705 | 90 | 217 | 9.0 | 12.0 | 0.00 | 0.00 | 0.00 | 75 | 1012.9 |
| 20260903193205 | 90 | 207 | 10.0 | 13.0 | 0.00 | 0.00 | 0.00 | 76 | 1012.8 |
| 20260903192705 | 90 | 198 | 7.0 | 13.0 | 0.00 | 0.00 | 0.00 | 74 | 1012.9 |
| 20260903192205 | 90 | 217 | 9.0 | 12.0 | 0.00 | 0.00 | 0.00 | 78 | 1013.0 |
| 20260903191705 | 89 | 222 | 10.0 | 13.0 | 0.00 | 0.00 | 0.00 | 74 | 1013.1 |
| 20260903191205 | 89 | 209 | 7.0 | 10.0 | 0.00 | 0.00 | 0.00 | 73 | 1013.1 |
| 20260903190705 | 89 | 231 | 5.0 | 7.0 | 0.00 | 0.00 | 0.00 | 74 | 1013.2 |
| 20260903190205 | 89 | 225 | 7.0 | 8.0 | 0.00 | 0.01 | 0.00 | 75 | 1013.2 |
| 20260903185205 | 88 | 189 | 6.0 | 12.0 | 0.00 | 0.01 | 0.00 | 79 | 1013.1 |
| 20260903184705 | 88 | 194 | 9.0 | 10.0 | 0.00 | 0.01 | 0.00 | 77 | 1013.1 |
| 20260903184205 | 87 | 212 | 8.0 | 10.0 | 0.00 | 0.01 | 0.00 | 78 | 1013.1 |
| 20260903183705 | 87 | 229 | 7.0 | 12.0 | 0.00 | 0.01 | 0.00 | 78 | 1013.2 |
| 20260903183205 | 87 | 212 | 7.0 | 12.0 | 0.00 | 0.01 | 0.00 | 78 | 1013.4 |
| 20260903182705 | 86 | 231 | 7.0 | 10.0 | 0.00 | 0.01 | 0.00 | 78 | 1013.3 |
| 20260903182205 | 86 | 230 | 6.0 | 8.0 | 0.00 | 0.01 | 0.00 | 79 | 1013.5 |
| 20260903181705 | 86 | 236 | 8.0 | 12.0 | 0.00 | 0.01 | 0.00 | 78 | 1013.6 |
| 20260903181205 | 85 | 224 | 7.0 | 14.0 | 0.00 | 0.02 | 0.00 | 77 | 1013.6 |
| 20260903180705 | 85 | 229 | 6.0 | 10.0 | 0.00 | 0.03 | 0.00 | 79 | 1013.6 |
| 20260903180205 | 85 | 237 | 8.0 | 12.0 | 0.00 | 0.07 | 0.00 | 80 | 1013.7 |
| 20260903175705 | 85 | 239 | 9.0 | 12.0 | 0.00 | 0.10 | 0.00 | 83 | 1013.6 |
| 20260903174705 | 84 | 230 | 8.0 | 12.0 | 0.00 | 0.10 | 0.00 | 83 | 1013.7 |
| 20260903173705 | 84 | 229 | 6.0 | 13.0 | 0.00 | 0.10 | 0.00 | 81 | 1013.9 |
| 20260903173205 | 84 | 244 | 5.0 | 9.0 | 0.00 | 0.10 | 0.00 | 81 | 1014.2 |
| 20260903172705 | 84 | 273 | 5.0 | 9.0 | 0.00 | 0.10 | 0.00 | 83 | 1014.5 |
| 20260903172205 | 83 | 241 | 6.0 | 9.0 | 0.00 | 0.10 | 0.00 | 84 | 1014.3 |
| 20260903171705 | 83 | 231 | 8.0 | 12.0 | 0.00 | 0.10 | 0.00 | 85 | 1014.1 |
| 20260903171205 | 83 | 205 | 9.0 | 10.0 | 0.00 | 0.10 | 0.00 | 84 | 1014.1 |
| 20260903170704 | 83 | 220 | 6.0 | 9.0 | 0.00 | 0.10 | 0.00 | 84 | 1014.3 |
| 20260903170205 | 83 | 234 | 6.0 | 9.0 | 0.00 | 0.10 | 0.00 | 85 | 1014.6 |
| 20260903165705 | 83 | 212 | 7.0 | 10.0 | 0.00 | 0.10 | 0.00 | 84 | 1014.6 |
| 20260903165205 | 83 | 210 | 5.0 | 9.0 | 0.00 | 0.10 | 0.00 | 83 | 1014.7 |
| 20260903164705 | 83 | 239 | 3.0 | 5.0 | 0.00 | 0.10 | 0.00 | 84 | 1015.0 |
| 20260903164205 | 83 | 240 | 3.0 | 7.0 | 0.00 | 0.10 | 0.00 | 82 | 1015.6 |
| 20260903163705 | 83 | 248 | 2.0 | 9.0 | 0.00 | 0.10 | 0.00 | 82 | 1015.8 |
| 20260903163206 | 83 | 251 | 3.0 | 9.0 | 0.00 | 0.10 | 0.00 | 82 | 1015.8 |
| 20260903162705 | 84 | 271 | 3.0 | 7.0 | 0.00 | 0.10 | 0.00 | 82 | 1015.8 |
| 20260903162205 | 84 | 237 | 8.0 | 13.0 | 0.00 | 0.10 | 0.00 | 82 | 1015.5 |
| 20260903161705 | 84 | 220 | 12.0 | 14.0 | 0.00 | 0.10 | 0.00 | 82 | 1015.4 |
| 20260903161205 | 84 | 223 | 10.0 | 14.0 | 0.00 | 0.10 | 0.00 | 81 | 1015.6 |
| 20260903160705 | 84 | 232 | 11.0 | 20.0 | 0.00 | 0.10 | 0.00 | 82 | 1015.6 |
| 20260903160204 | 84 | 222 | 13.0 | 17.0 | 0.00 | 0.10 | 0.00 | 81 | 1015.5 |
| 20260903155205 | 85 | 217 | 13.0 | 17.0 | 0.00 | 0.10 | 0.00 | 83 | 1015.3 |
| 20260903154705 | 85 | 223 | 11.0 | 16.0 | 0.00 | 0.10 | 0.00 | 80 | 1015.3 |
| 20260903154205 | 85 | 223 | 12.0 | 15.0 | 0.00 | 0.10 | 0.00 | 82 | 1015.3 |
| 20260903153705 | 85 | 221 | 13.0 | 15.0 | 0.00 | 0.10 | 0.00 | 80 | 1015.4 |
| 20260903153205 | 85 | 212 | 13.0 | 17.0 | 0.00 | 0.10 | 0.00 | 79 | 1015.3 |
| 20260903152705 | 85 | 216 | 13.0 | 17.0 | 0.00 | 0.10 | 0.00 | 83 | 1015.1 |
| 20260903152205 | 84 | 227 | 13.0 | 17.0 | 0.00 | 0.10 | 0.00 | 83 | 1015.2 |
| 20260903151705 | 84 | 190 | 10.0 | 15.0 | 0.00 | 0.10 | 0.00 | 85 | 1015.1 |
| 20260903151205 | 83 | 208 | 9.0 | 12.0 | 0.00 | 0.10 | 0.00 | 85 | 1015.0 |
| 20260903150705 | 82 | 207 | 9.0 | 12.0 | 0.00 | 0.10 | 0.00 | 86 | 1015.1 |
| 20260903150204 | 82 | 202 | 7.0 | 12.0 | 0.00 | 0.10 | 0.00 | 85 | 1015.0 |
| 20260903145705 | 82 | 203 | 9.0 | 12.0 | 0.00 | 0.10 | 0.00 | 85 | 1015.1 |
| 20260903145205 | 81 | 208 | 9.0 | 12.0 | 0.00 | 0.10 | 0.00 | 86 | 1015.1 |
| 20260903144705 | 81 | 195 | 6.0 | 12.0 | 0.00 | 0.10 | 0.00 | 87 | 1015.0 |
| 20260903144204 | 81 | 198 | 6.0 | 12.0 | 0.00 | 0.10 | 0.00 | 86 | 1015.0 |
| 20260903143705 | 81 | 201 | 9.0 | 10.0 | 0.00 | 0.10 | 0.00 | 86 | 1015.0 |
| 20260903142705 | 81 | 204 | 6.0 | 10.0 | 0.00 | 0.10 | 0.00 | 86 | 1014.7 |
| 20260903142205 | 81 | 209 | 7.0 | 12.0 | 0.00 | 0.10 | 0.00 | 84 | 1014.5 |
| 20260903141705 | 81 | 176 | 9.0 | 15.0 | 0.00 | 0.10 | 0.00 | 84 | 1014.2 |
| 20260903141205 | 81 | 164 | 10.0 | 14.0 | 0.00 | 0.10 | 0.00 | 85 | 1014.4 |
| 20260903140205 | 80 | 178 | 9.0 | 14.0 | 0.00 | 0.10 | 0.00 | 88 | 1014.4 |
| 20260903135705 | 80 | 165 | 4.0 | 9.0 | 0.00 | 0.10 | 0.00 | 90 | 1015.0 |
| 20260903135205 | 79 | 182 | 6.0 | 8.0 | 0.00 | 0.10 | 0.00 | 91 | 1015.1 |
| 20260903134705 | 78 | 155 | 5.0 | 8.0 | 0.00 | 0.10 | 0.00 | 93 | 1015.0 |
| 20260903133705 | 78 | 156 | 4.0 | 9.0 | 0.00 | 0.10 | 0.00 | 93 | 1015.2 |
| 20260903132206 | 77 | 173 | 6.0 | 12.0 | 0.00 | 0.10 | 0.00 | 93 | 1015.3 |
| 20260903131705 | 76 | 165 | 5.0 | 8.0 | 0.00 | 0.10 | 0.00 | 93 | 1015.6 |
| 20260903131205 | 76 | 173 | 5.0 | 8.0 | 0.00 | 0.10 | 0.00 | 93 | 1015.6 |
| 20260903130705 | 76 | 174 | 3.0 | 5.0 | 0.00 | 0.10 | 0.00 | 93 | 1015.9 |
| 20260903130205 | 76 | 145 | 1.0 | 3.0 | 0.00 | 0.10 | 0.00 | 93 | 1016.0 |
| 20260903125705 | 76 | 119 | 2.0 | 3.0 | 0.00 | 0.10 | 0.00 | 93 | 1016.1 |
| 20260903124705 | 75 | 142 | 2.0 | 3.0 | 0.00 | 0.10 | 0.00 | 93 | 1016.2 |
| 20260903124205 | 75 | 61 | 1.0 | 3.0 | 0.00 | 0.10 | 0.00 | 93 | 1016.4 |
| 20260903123705 | 75 | 57 | 1.0 | 3.0 | 0.00 | 0.10 | 0.00 | 93 | 1016.6 |
| 20260903122705 | 75 | 36 | 1.0 | 3.0 | 0.00 | 0.10 | 0.00 | 93 | 1016.5 |
| 20260903122205 | 75 | 69 | 2.0 | 3.0 | 0.00 | 0.10 | 0.00 | 93 | 1016.4 |
| 20260903121704 | 75 | 56 | 2.0 | 3.0 | 0.00 | 0.10 | 0.00 | 93 | 1016.2 |
| 20260903121204 | 75 | 85 | 2.0 | 3.0 | 0.00 | 0.10 | 0.00 | 93 | 1016.2 |
| 20260903120704 | 75 | 89 | 3.0 | 6.0 | 0.00 | 0.10 | 0.00 | 93 | 1016.3 |
| 20260903115705 | 75 | 99 | 2.0 | 3.0 | 0.00 | 0.10 | 0.00 | 93 | 1016.3 |
| 20260903115205 | 75 | 29 | 3.0 | 7.0 | 0.00 | 0.10 | 0.00 | 93 | 1016.5 |
| 20260903114704 | 75 | 58 | 6.0 | 9.0 | 0.00 | 0.10 | 0.00 | 93 | 1016.4 |
| 20260903114204 | 75 | 58 | 5.0 | 8.0 | 0.00 | 0.10 | 0.00 | 93 | 1016.3 |
| 20260903113705 | 75 | 45 | 6.0 | 8.0 | 0.00 | 0.10 | 0.00 | 93 | 1016.5 |
| 20260903113205 | 75 | 63 | 4.0 | 7.0 | 0.00 | 0.10 | 0.00 | 93 | 1016.2 |
| 20260903112705 | 75 | 64 | 4.0 | 7.0 | 0.00 | 0.10 | 0.00 | 93 | 1016.3 |
| 20260903111205 | 75 | 57 | 5.0 | 8.0 | 0.00 | 0.10 | 0.00 | 93 | 1016.0 |
| 20260903110704 | 75 | 27 | 4.0 | 6.0 | 0.00 | 0.10 | 0.00 | 93 | 1015.9 |
| 20260903110205 | 75 | 356 | 3.0 | 7.0 | 0.00 | 0.10 | 0.00 | 93 | 1015.4 |
| 20260903105705 | 75 | 88 | 2.0 | 3.0 | 0.00 | 0.10 | 0.00 | 93 | 1015.0 |
| 20260903103705 | 75 | 153 | 3.0 | 7.0 | 0.00 | 0.10 | 0.00 | 93 | 1014.7 |
| 20260903103205 | 75 | 145 | 4.0 | 7.0 | 0.00 | 0.10 | 0.00 | 93 | 1014.7 |
| 20260903102705 | 75 | 149 | 3.0 | 7.0 | 0.00 | 0.10 | 0.00 | 93 | 1014.7 |
| 20260903102205 | 75 | 153 | 2.0 | 5.0 | 0.00 | 0.10 | 0.00 | 93 | 1014.8 |
| 20260903101705 | 75 | 144 | 2.0 | 3.0 | 0.00 | 0.10 | 0.00 | 93 | 1014.9 |
| 20260903101204 | 75 | 90 | 2.0 | 3.0 | 0.00 | 0.10 | 0.00 | 93 | 1014.9 |
| 20260903100705 | 75 | 99 | 3.0 | 8.0 | 0.00 | 0.10 | 0.00 | 94 | 1015.0 |
| 20260903095205 | 75 | 102 | 4.0 | 7.0 | 0.00 | 0.10 | 0.00 | 93 | 1015.1 |
| 20260903094704 | 75 | 78 | 3.0 | 5.0 | 0.00 | 0.10 | 0.00 | 93 | 1015.2 |
| 20260903094204 | 75 | 70 | 3.0 | 5.0 | 0.00 | 0.10 | 0.00 | 93 | 1015.2 |
| 20260903093704 | 75 | 76 | 3.0 | 5.0 | 0.00 | 0.10 | 0.00 | 93 | 1015.3 |
| 20260903093205 | 75 | 86 | 2.0 | 3.0 | 0.00 | 0.10 | 0.00 | 93 | 1015.2 |
| 20260903092205 | 75 | 65 | 3.0 | 5.0 | 0.00 | 0.10 | 0.00 | 93 | 1015.1 |
| 20260903091705 | 75 | 71 | 4.0 | 5.0 | 0.00 | 0.10 | 0.00 | 93 | 1015.2 |
| 20260903091204 | 75 | 73 | 3.0 | 5.0 | 0.00 | 0.10 | 0.00 | 93 | 1015.2 |
| 20260903090705 | 75 | 73 | 3.0 | 3.0 | 0.00 | 0.10 | 0.00 | 93 | 1015.1 |
| 20260903085705 | 75 | 96 | 4.0 | 6.0 | 0.00 | 0.10 | 0.00 | 93 | 1015.0 |
| 20260903084705 | 75 | 67 | 4.0 | 6.0 | 0.00 | 0.10 | 0.00 | 93 | 1015.0 |
| 20260903084205 | 76 | 63 | 3.0 | 6.0 | 0.00 | 0.10 | 0.00 | 94 | 1015.0 |
| 20260903083704 | 76 | 88 | 3.0 | 5.0 | 0.00 | 0.10 | 0.00 | 94 | 1015.0 |
| 20260903083204 | 76 | 113 | 2.0 | 6.0 | 0.00 | 0.10 | 0.00 | 94 | 1015.0 |
| 20260903082704 | 76 | 117 | 3.0 | 6.0 | 0.00 | 0.10 | 0.00 | 94 | 1015.1 |
| 20260903082204 | 75 | 93 | 2.0 | 5.0 | 0.00 | 0.10 | 0.00 | 93 | 1015.3 |
| 20260903081704 | 75 | 106 | 2.0 | 3.0 | 0.00 | 0.10 | 0.00 | 93 | 1015.3 |
| 20260903081205 | 75 | 93 | 3.0 | 5.0 | 0.00 | 0.10 | 0.00 | 93 | 1015.3 |
| 20260903080705 | 75 | 43 | 3.0 | 5.0 | 0.00 | 0.10 | 0.00 | 93 | 1015.3 |
| 20260903075705 | 76 | 75 | 3.0 | 3.0 | 0.00 | 0.10 | 0.00 | 94 | 1015.1 |
| 20260903075204 | 76 | 122 | 1.0 | 3.0 | 0.00 | 0.10 | 0.00 | 94 | 1015.1 |
| 20260903074704 | 76 | 109 | 1.0 | 3.0 | 0.00 | 0.10 | 0.00 | 94 | 1015.1 |
| 20260903074205 | 75 | 150 | 2.0 | 3.0 | 0.00 | 0.10 | 0.00 | 94 | 1015.0 |
| 20260903073705 | 75 | 118 | 2.0 | 3.0 | 0.00 | 0.10 | 0.00 | 94 | 1015.0 |
| 20260903073205 | 75 | 144 | 1.0 | 3.0 | 0.00 | 0.10 | 0.00 | 94 | 1015.0 |
| 20260903072704 | 75 | 155 | 2.0 | 3.0 | 0.00 | 0.10 | 0.00 | 94 | 1014.9 |
| 20260903072204 | 75 | 140 | 1.0 | 3.0 | 0.00 | 0.10 | 0.00 | 94 | 1014.8 |
| 20260903071705 | 75 | 145 | 2.0 | 3.0 | 0.00 | 0.10 | 0.00 | 94 | 1014.8 |
| 20260903070205 | 75 | 136 | 2.0 | 3.0 | 0.00 | 0.10 | 0.00 | 94 | 1014.8 |
| 20260903065705 | 75 | 137 | 2.0 | 7.0 | 0.00 | 0.10 | 0.00 | 94 | 1014.8 |
| 20260903065205 | 75 | 109 | 3.0 | 7.0 | 0.00 | 0.10 | 0.00 | 94 | 1014.8 |
| 20260903064705 | 75 | 113 | 1.0 | 3.0 | 0.00 | 0.10 | 0.00 | 94 | 1014.9 |
| 20260903063705 | 75 | 166 | 3.0 | 7.0 | 0.00 | 0.10 | 0.00 | 93 | 1014.7 |
| 20260903062705 | 75 | 182 | 3.0 | 6.0 | 0.00 | 0.10 | 0.00 | 94 | 1014.7 |